Weather in Derazhnoe

Ukraine / Rovno District     50°51′39″N   26°02′52″E
temp.,
°C
wind,
m/s
gust,
m/s
humid.,
%
clouds,
%
prec.,
mm/h
press.,
hPa
HPBL,
m
15 may, sat
sat1500:00+11sw4109484 0.0 1006251
03:00+8sw389782 0.0 1007197
06:00+10ssw3796100 0.0 1007256
09:00+12w3692100 0.1 1008456
12:00+12wnw4691100 0.3 1010719
15:00+15w567198 0.3 10101103
18:00+15w55726 0.1 1010800
21:00+12w118211 0.1 101110
16 may, sun
sun1600:00+10s228493 0.0 101110
03:00+9sse338983 0.0 101233
06:00+9se3493100 0.0 101165
09:00+14se587651 0.0 1011371
12:00+19sse686461 0.0 10091185
15:00+21sse7861100 0.5 10071451
18:00+18s61075100 1.6 1006792
21:00+13sse359593 7.5 1007111
17 may, mon
mon1700:00+12ssw3895100 0.3 1008244
03:00+12sw2598100 4.8 1008170
06:00+11w479659 0.1 1008279
09:00+12wnw458745 0.1 1010477
12:00+16nw33665 0.0 10091016
15:00+19wnw33540 0.0 10081488
18:00+19wnw11520 0.0 10071400
21:00+14ssw22671 0.0 100710
18 may, tue
tue1800:00+11wnw499394 0.0 1008289
03:00+11w3797100 0.3 1008278
06:00+10wsw3598100 0.4 1008197
09:00+13w4588100 0.4 1009523
12:00+16wnw566566 0.1 10091294
15:00+19wnw555234 0.1 10081908
18:00+18wnw4561100 0.0 10081311
21:00+13nw3575100 0.0 100987
19 may, wed
wed1900:00+11nnw3581100 0.0 101089
03:00+10nw358456 0.0 101199
06:00+8nw239297 0.0 101162
09:00+12nw3480100 0.0 1012393
12:00+15nnw4564100 0.1 10121219
15:00+15wnw3369100 1.1 1012719
18:00+14nw2471100 0.3 1012408
21:00+12nw3481100 0.9 101265